Weather History for Nagpur Sonegaon, India

Change the Weather History Date:

Sunday, April 7, 2013

  Actual Average Record
Temperature  
Mean Temperature 88 °F -  
Max Temperature 106 °F 106 °F - ()
Min Temperature 69 °F 77 °F - ()
Cooling Degree Days 22    
Growing Degree Days 38 (Base 50)    
Moisture  
Dew Point 39 °F    
Average Humidity 15    
Maximum Humidity 36    
Minimum Humidity 4    
Precipitation  
Precipitation 0.00 in 0.01 in - ()
Sea Level Pressure  
Sea Level Pressure 29.71 in    
Wind  
Wind Speed 2 mph ()    
Max Wind Speed 7 mph    
Max Gust Speed -    
Visibility 2.9 miles    
Events      
T = Trace of Precipitation, MM = Missing Value Source: Averaged Metar Reports

Daily Weather History Graph

Daily Weather History Graph

Search for Another Location

Airport:

Trip Planner

Search our weather history database for the weather conditions in past years. The results will help you decide how hot, cold, wet, or windy it might be!

Date:

Astronomy

Apr. 07, 2013 Rise Set
Actual Time 6:01 AM IST 6:30 PM IST
Civil Twilight 5:39 AM IST 6:52 PM IST
Nautical Twilight 5:13 AM IST 7:18 PM IST
Astronomical Twilight 4:46 AM IST 7:45 PM IST
Moon 3:41 AM IST (4/7) 3:51 PM IST (4/7)
Length of Visible Light 13h 13m
Length of Day
12h 28m
Waning Crescent, 11% of the Moon is Illuminated
Apr 7
Waning Crescent
Apr 10
New
Apr 18
First Quarter
Apr 26
Full
May 2
Last Quarter

Hourly Weather History & Observations

Time (IST) Temp. Dew Point Humidity Pressure Visibility Wind Dir Wind Speed Gust Speed Precip Events Conditions
12:10 AM 86.0 °F 41.0 °F 20% 29.74 in 3.1 mi Calm Calm - N/A   Haze
1:10 AM 86.0 °F 42.8 °F 22% 29.74 in 3.1 mi Calm Calm - N/A   Haze
2:30 AM 72 °F 51 °F 36% 29.66 in 2 mi Calm Calm - -   Haze
4:10 AM 80.6 °F 41.0 °F 24% 29.68 in 3.1 mi North 2.3 mph - N/A   Haze
5:30 AM 73 °F 46 °F 27% 29.69 in 2 mi Calm Calm - -   Haze
6:10 AM 78.8 °F 35.6 °F 21% 29.74 in 3.1 mi North 2.3 mph - N/A   Haze
7:10 AM 78.8 °F 37.4 °F 23% 29.74 in 3.1 mi NNW 2.3 mph - N/A   Haze
8:10 AM 86.0 °F 39.2 °F 19% 29.80 in 3.1 mi North 2.3 mph - N/A   Haze
8:30 AM 86 °F 41 °F 12% 29.77 in 2 mi ENE 2.3 mph - -   Haze
9:10 AM 91.4 °F 39.2 °F 16% 29.83 in 3.1 mi ENE 4.6 mph - N/A   Haze
10:10 AM 100.4 °F 37.4 °F 11% 29.83 in 3.1 mi East 5.8 mph - N/A   Haze
11:10 AM 102.2 °F 33.8 °F 9% - 3.7 mi North - - N/A   Unknown
11:30 AM 102 °F 38 °F 5% 29.71 in 2 mi East 5.8 mph - -  
12:10 PM 105.8 °F 32.0 °F 8% 29.80 in 3.7 mi East 6.9 mph - N/A   Unknown
1:10 PM 109.4 °F 32.0 °F 7% 29.77 in 3.7 mi East 5.8 mph - N/A   Unknown
2:10 PM 109.4 °F 33.8 °F 7% 29.71 in 3.7 mi NNE 5.8 mph - N/A   Unknown
2:30 PM 105 °F 35 °F 4% 29.61 in 2 mi North 5.8 mph - -  
3:10 PM 109.4 °F 33.8 °F 7% 29.68 in 3.7 mi NNE 4.6 mph - N/A   Unknown
4:10 PM 109.4 °F 33.8 °F 7% 29.65 in 3.7 mi NNE 5.8 mph - N/A   Unknown
5:10 PM 111.2 °F 33.8 °F 7% 29.65 in 3.7 mi North 2.3 mph - N/A   Unknown
5:30 PM 101 °F 46 °F 8% 29.58 in 2 mi NE 2.3 mph - -  
6:10 PM 105.8 °F 35.6 °F 9% 29.65 in 3.7 mi Calm Calm - N/A   Unknown
7:10 PM 98.6 °F 37.4 °F 12% 29.68 in 3.1 mi Calm Calm - N/A   Haze
8:10 PM 95.0 °F 37.4 °F 13% 29.71 in 3.1 mi Calm Calm - N/A   Haze
8:30 PM 83 °F 48 °F 19% 29.67 in 1 mi South 2.3 mph - -   Haze
8:40 PM 93.2 °F 35.6 °F 13% 29.71 in 3.1 mi South 2.3 mph - N/A   Haze
9:10 PM 91.4 °F 35.6 °F 14% 29.74 in 3.1 mi South 2.3 mph - N/A   Haze
10:10 PM 87.8 °F 35.6 °F 16% 29.74 in 3.1 mi SSE 2.3 mph - N/A   Haze
11:10 PM 86.0 °F 39.2 °F 19% 29.74 in 3.1 mi Calm Calm - N/A   Haze
11:30 PM 81 °F 49 °F 22% 29.70 in 1 mi NNE 4.6 mph - -   Haze